Location: Chevoux
(46.3801°N, 4.9476°E)
Time: 16:16:19
(UTC+00:00)

Cosmos 1953 Rocket - Pass Details

Date: 28 January 2021
Orbit: 604 x 634 km, 82.5° (Epoch: 28 February)

Event Time Altitude Azimuth Distance (km) Brightness Sun altitude
Rises 18:08:29 0° 171° (S) 2,866 7.0 -15.5°
Reaches altitude 10° 18:10:45 10° 165° (SSE) 1,962 6.1 -15.9°
Maximum altitude 18:14:53 44° 93° (E) 842 3.8 -16.6°
Enters shadow 18:18:02 16° 26° (NNE) 1,596 5.3 -17.1°
